Regional Weather Roundup
Issued by NWS Cleveland, OH

Home | Current Version | Previous Version | Graphics & Text | Print | Product List | Glossary On
Versions: 1 2 3 4 5 6 7 8 9 10 11 12 13 14 15 16 17 18 19 20 21 22 23 24 25 26 27 28 29 30 31 32 33 34 35 36 37 38 39 40 41 42 43 44 45 46 47 48 49 50
041
ASUS41 KCLE 260812
RWRCLE
OHIO REGIONAL WEATHER ROUNDUP
NATIONAL WEATHER SERVICE WILMINGTON, OH
400 AM EDT MON SEP 26 2016

NOTE: "FAIR" INDICATES FEW OR NO CLOUDS BELOW 12,000 FEET WITH NO
SIGNIFICANT WEATHER AND/OR OBSTRUCTIONS TO VISIBILITY.

OHZ001>008-015>018-024>027-034-035-043-044-260900-
   NORTHWEST OHIO

CITY           SKY/WX    TMP DP  RH WIND       PRES   REMARKS
DEFIANCE       CLOUDY    67  63  87 NW7       29.91F
FINDLAY        MOCLDY    70  51  51 SE8       29.91F
TOLEDO EXPRESS CLOUDY    63  60  90 S7        29.89F
TOLEDO EXEC    FAIR      65  59  81 W3        29.91F THUNDER
LIMA           FAIR      70  60  70 S8        29.92F
$$

OHZ009>014-019>023-028>033-038-089-260900-
   NORTHEAST OHIO

CITY           SKY/WX    TMP DP  RH WIND       PRES   REMARKS
CLE-HOPKINS    MOCLDY    63  46  54 S14       29.98F
CLE-LAKEFRONT  FAIR      64  46  52 SE16      29.95F
CUY CO. ARPT   NOT AVBL
LORAIN-ELYRIA  FAIR      61  47  59 S12       29.96F
ASHTABULA      FAIR      54  48  80 SE5       30.01F
AKRON-CANTON   FAIR      59  46  62 SE7       30.01F
WOOSTER        FAIR      54  48  80 SE3       30.00F
MANSFIELD      FAIR      64  48  56 S12       29.98F
YOUNGSTOWN     MOCLDY    56  46  69 SE9       30.01F
$$

OHZ042-051>053-060>062-070>072-077>081-260900-
  SOUTHWEST OHIO

CITY           SKY/WX    TMP DP  RH WIND       PRES   REMARKS
CINC-COVINGTON FAIR      71  65  81 S7        29.97F
CINC-LUNKEN    FOG       64  64 100 CALM      29.96F VSB 3/4
HAMILTON       FAIR      64  62  93 CALM      29.97F FOG
DAYTON         FAIR      71  63  75 S9        29.97F
WRIGHT-PAT AFB CLEAR     67  63  87 SE1       29.95F
DAYTON GENERAL FAIR      68  62  81 S7        29.96F
WILMINGTON     FAIR      67  62  84 S7        29.97F
$$

OHZ036-037-039>041-045>050-054>059-063>069-073>076-082>088-260900-
  CENTRAL AND SOUTHEAST OHIO

CITY           SKY/WX    TMP DP  RH WIND       PRES   REMARKS
COLUMBUS       FAIR      63  51  65 SE5       29.97F
OSU AIRPORT    FAIR      61  53  75 SE3       29.97F
BOLTON FIELD   FAIR      61  54  77 S5        29.97F
RICKENBACK AFB FAIR      58  53  83 SE3       29.97F
NEWARK         FAIR      55  53  93 CALM      29.98F
MARION         FAIR      63  48  58 S8        29.97F
LANCASTER      FAIR      60  54  80 SE5       29.98F
ZANESVILLE     FAIR      56  51  84 CALM      30.00F
NEW PHILLY     FAIR      54  52  93 CALM      30.01F
$$




USA.gov is the U.S. government's official web portal to all federal, state and local government web resources and services.